User: anonymous   Login
Location: Vancouver
(49.2500°N, 123.1330°W)
Time: 10:36:31
(UTC-08:00)
Language:

Cosmos 1864 Rocket - Orbit

View from above orbital plane
View from above orbital plane
View from above satellite
View from above satellite

Ground track
Ground track

The orbit data is extracted from the following two-line orbital elements,

1 18161U 87057B   18053.95380513 -.00000075 +00000-0 -91169-4 0  9999
2 18161 082.9307 245.3147 0030672 333.9382 180.4371 13.76995668518472
Epoch (UTC): 22 February 2018 22:53:28
Eccentricity: 0.0030672
inclination: 82.9307°
perigee height: 952 km
apogee height: 997 km
right ascension of ascending node: 245.3147°
argument of perigee: 333.9382°
revolutions per day: 13.76995668
mean anomaly at epoch: 180.4371°
orbit number at epoch: 51847

The dashed part of the orbit path shows where the satellite is in the earth's shadow,  

DLR